Location: Fuglau
(48.6333°N, 15.5500°E)
Time: 18:28:04
(UTC+00:00)

Cosmos 1939 Rocket - Pass Details

Date: 27 February 2020
Orbit: 532 x 585 km, 97.4° (Epoch: 27 March)

Event Time Altitude Azimuth Distance (km) Brightness Sun altitude
Rises 17:28:13 0° 165° (SSE) 2,796 6.3 -9.2°
Reaches altitude 10° 17:30:21 10° 166° (SSE) 1,903 5.4 -9.5°
Maximum altitude 17:34:30 90° 102° (ESE) 593 2.9 -10.2°
Drops below altitude 10° 17:38:40 10° 347° (NNW) 1,915 5.7 -10.9°
Sets 17:40:50 0° 348° (NNW) 2,816 6.6 -11.2°
